Temp
85 83 79 72 71 71 71 72 72 72 73 73 73 73 73 73 73 73 73 72 72 72 72 72 71 71 71 70 70 72 90 91
84 83 83 82 80 70 71 71 71 72 72 72 71 72 72 72 72 72 72 72 72 72 71 70 70 69 69 69 70 73 89 91
83 83 83 83 83 79 72 71 71 71 72 70 71 84 81 78 74 71 71 70 70 70 69 69 68 68 68 69 71 89 88 89
82 80 83 84 87 82 82 82 82 82 81 80 85 85 85 85 75 69 69 68 68 68 68 69 70 85 81 72 87 84 87 87
83 77 81 84 86 78 81 79 78 78 78 79 85 82 82 83 80 78 77 73 80 77 77 84 80 85 83 83 81 83 86 80
84 82 80 83 85 77 77 76 76 76 76 79 81 82 81 82 82 81 79 81 79 79 80 77 76 77 77 77 80 82 82 81
83 81 79 80 81 80 78 76 77 76 77 79 83 83 80 81 81 81 80 79 79 77 76 77 75 75 75 75 75 76 78 80
83 81 79 79 82 81 81 79 76 80 78 82 81 83 80 81 79 79 79 79 78 77 76 75 76 74 73 74 74 76 76 74
81 79 79 78 81 82 82 83 80 81 80 77 78 81 78 78 78 77 77 76 74 74 73 74 74 74 72 73 73 72 72 72
83 79 78 77 80 81 82 81 78 78 76 75 76 78 77 76 76 75 74 73 74 74 74 73 73 73 72 73 71 69 67 68
82 77 77 77 75 77 78 76 76 73 71 71 76 75 74 76 76 74 71 74 73 73 72 73 72 72 72 71 72 71 70 71
80 74 73 74 70 72 73 72 70 68 67 67 68 66 68 73 74 71 72 73 72 72 70 72 72 69 70 69 70 70 70 70
75 71 71 71 69 65 60 63 59 59 61 62 63 63 64 68 71 69 70 71 71 69 70 68 69 68 65 65 65 66 67 68
73 70 67 67 67 65 64 61 58 59 58 58 60 61 62 67 69 68 69 70 68 67 68 68 68 68 67 65 58 60 64 66
71 68 66 66 65 61 57 55 54 54 55 55 57 60 61 63 66 66 66 68 66 66 66 65 62 67 68 67 61 61 59 61
70 66 64 64 61 59 57 59 56 58 56 56 56 59 61 56 52 53 58 59 59 60 62 62 65 61 63 65 64 67 60 54
61 60 58 58 58 58 57 53 51 50 50 48 49 50 51 50 52 50 49 50 54 56 57 58 63 62 62 61 61 63 66 64
55 55 55 55 54 53 51 50 49 48 48 46 46 45 45 47 47 47 49 51 51 54 54 56 60 60 63 60 58 58 60 59
53 53 51 52 52 52 52 51 50 49 48 47 45 45 44 45 47 46 46 49 53 53 52 52 54 56 54 54 53 54 58 61
58 56 53 53 53 52 52 52 51 50 49 48 49 47 47 46 47 47 46 46 47 47 46 45 47 47 49 51 52 54 57 59
MSLP
1011.41 1012.53 1013.08 1013.44 1013.58 1013.82 1014.20 1014.65 1015.06 1015.51 1015.96 1016.31 1016.71 1017.09 1017.33 1017.57 1017.70 1017.93 1018.26 1018.48 1018.64 1018.60 1018.74 1018.83 1018.82 1018.92 1019.04 1019.11 1018.92 1018.55 1017.31 1017.39
1011.42 1012.09 1012.74 1013.31 1013.83 1014.26 1014.46 1014.82 1015.23 1015.68 1016.09 1016.59 1016.93 1017.30 1017.70 1017.93 1018.08 1018.22 1018.35 1018.61 1018.85 1019.01 1018.97 1019.07 1019.14 1019.15 1019.23 1019.25 1018.97 1018.39 1017.50 1017.42
1011.25 1011.77 1012.35 1012.77 1013.32 1014.14 1014.79 1015.09 1015.49 1015.90 1016.16 1016.66 1017.11 1016.90 1017.50 1017.94 1017.90 1018.43 1018.64 1018.80 1018.98 1019.20 1019.35 1019.38 1019.42 1019.57 1019.56 1019.30 1018.77 1017.78 1017.85 1017.83
1011.33 1011.61 1011.94 1012.32 1012.57 1013.54 1014.22 1014.71 1015.23 1015.53 1015.90 1016.46 1016.29 1016.41 1016.76 1016.86 1018.04 1018.70 1018.82 1018.96 1019.24 1019.20 1019.35 1019.34 1019.20 1018.35 1019.05 1019.37 1018.29 1018.40 1018.08 1018.19
1010.74 1011.80 1011.93 1012.06 1012.12 1013.42 1013.73 1014.23 1014.88 1015.29 1015.49 1015.89 1015.69 1016.54 1016.97 1017.11 1017.69 1018.06 1018.42 1018.63 1018.26 1018.77 1018.83 1018.30 1018.59 1018.47 1018.67 1018.84 1019.02 1018.63 1018.43 1019.28
1010.40 1011.29 1011.82 1011.92 1012.27 1013.52 1013.82 1014.31 1014.64 1015.13 1015.46 1015.55 1015.58 1015.97 1016.47 1016.40 1016.79 1017.25 1017.75 1017.90 1018.26 1018.23 1018.41 1018.84 1019.08 1019.32 1019.39 1019.49 1019.35 1018.96 1018.94 1019.35
1009.87 1010.79 1011.51 1012.09 1012.41 1012.79 1013.38 1013.82 1014.14 1014.64 1014.99 1015.21 1015.14 1015.23 1015.90 1016.17 1016.52 1016.80 1017.28 1017.91 1018.09 1018.35 1018.76 1018.87 1019.16 1019.43 1019.68 1019.78 1019.94 1019.74 1019.58 1019.59
1009.02 1010.10 1010.97 1011.63 1011.58 1012.14 1012.51 1013.30 1013.90 1013.93 1014.51 1014.58 1015.05 1015.03 1015.80 1016.10 1016.45 1016.66 1017.10 1017.53 1018.04 1018.34 1018.61 1018.94 1019.11 1019.57 1019.94 1020.10 1020.08 1019.96 1020.10 1020.65
1008.75 1009.93 1010.56 1011.20 1011.00 1011.50 1011.78 1012.11 1012.98 1013.36 1013.87 1014.39 1014.92 1015.04 1015.63 1015.99 1016.47 1016.88 1017.29 1017.97 1018.21 1018.51 1018.91 1019.15 1019.29 1019.49 1019.97 1020.17 1020.41 1020.66 1020.94 1020.87
1008.36 1009.38 1010.37 1010.86 1010.89 1011.46 1011.84 1012.21 1012.88 1013.14 1013.89 1014.26 1014.78 1015.13 1015.65 1016.04 1016.40 1016.84 1017.50 1017.92 1018.20 1018.41 1018.57 1018.60 1018.76 1018.92 1019.52 1019.75 1020.30 1020.92 1021.37 1021.41
1007.50 1008.90 1009.77 1010.43 1010.77 1011.24 1011.79 1012.47 1013.08 1013.60 1014.04 1014.28 1014.52 1015.22 1015.66 1015.90 1016.30 1016.99 1017.85 1017.87 1018.00 1018.17 1018.45 1018.69 1018.79 1019.03 1019.37 1019.85 1020.10 1020.50 1020.85 1021.18
1006.78 1008.35 1009.55 1010.05 1010.87 1011.61 1012.01 1012.49 1012.95 1013.66 1014.15 1014.47 1014.89 1015.38 1015.75 1015.92 1016.38 1017.07 1017.45 1017.73 1018.04 1018.14 1018.45 1018.62 1018.72 1019.37 1019.81 1020.26 1020.52 1020.72 1021.13 1021.40
1006.82 1007.97 1008.87 1009.67 1010.40 1011.40 1012.48 1012.84 1013.70 1014.36 1014.81 1014.93 1015.15 1015.48 1015.85 1016.13 1016.34 1017.16 1017.34 1017.65 1018.02 1018.56 1018.81 1019.03 1019.04 1019.68 1019.74 1020.30 1020.97 1021.31 1021.22 1021.40
1006.62 1007.52 1008.48 1009.38 1010.01 1010.66 1011.44 1012.37 1013.45 1014.14 1014.78 1015.31 1015.75 1015.83 1016.14 1016.18 1015.98 1016.89 1017.24 1017.61 1018.21 1018.61 1018.82 1018.87 1019.19 1019.51 1019.17 1019.50 1020.48 1021.40 1021.71 1021.89
1006.57 1007.39 1008.21 1008.98 1009.93 1010.70 1011.66 1012.59 1013.76 1014.44 1015.05 1015.72 1016.22 1016.45 1016.55 1016.82 1016.69 1017.18 1017.58 1017.92 1018.38 1018.83 1019.10 1019.16 1019.38 1019.46 1019.33 1018.96 1019.21 1018.97 1020.98 1022.05
1006.50 1007.47 1008.22 1008.93 1009.82 1010.77 1011.75 1012.32 1013.48 1014.17 1015.09 1015.99 1016.70 1017.17 1017.58 1017.90 1018.11 1018.32 1018.67 1019.15 1019.03 1019.16 1019.49 1019.71 1019.77 1019.86 1020.03 1020.14 1020.00 1018.97 1019.82 1021.30
1006.95 1007.62 1008.67 1009.44 1010.11 1010.70 1011.65 1012.81 1013.78 1014.66 1015.52 1016.56 1017.09 1018.11 1018.88 1019.28 1019.61 1019.88 1019.85 1020.38 1019.90 1019.96 1020.16 1019.97 1020.44 1020.38 1020.35 1020.37 1020.29 1020.33 1020.12 1020.06
1008.34 1008.85 1009.51 1010.08 1010.57 1011.23 1012.08 1012.85 1013.97 1014.97 1015.94 1016.58 1017.27 1018.02 1018.42 1019.77 1020.55 1020.07 1020.15 1021.02 1020.92 1020.33 1020.46 1020.24 1020.82 1021.17 1021.09 1020.99 1020.82 1020.73 1020.57 1020.94
1009.03 1009.48 1010.17 1010.85 1011.38 1011.88 1012.37 1013.04 1013.86 1014.83 1015.97 1016.76 1017.50 1017.77 1017.13 1017.95 1018.89 1018.49 1019.12 1019.81 1021.09 1021.34 1021.75 1021.13 1021.31 1021.61 1021.73 1021.97 1022.07 1021.66 1021.53 1021.35
1009.20 1009.56 1010.07 1010.53 1011.02 1011.77 1012.70 1013.24 1013.84 1014.67 1014.86 1015.68 1017.30 1016.53 1018.07 1017.66 1019.73 1020.01 1019.75 1020.36 1020.65 1020.76 1020.87 1021.15 1021.67 1022.11 1022.18 1022.23 1022.41 1022.31 1021.76 1021.55
Wind_Speed
16 17 15 11 12 14 14 15 15 14 13 12 12 11 11 11 11 11 10 9 9 10 8 7 6 6 6 5 3 5 3 4
14 15 16 16 15 11 13 13 13 13 13 11 11 11 10 9 9 9 10 10 9 9 9 9 9 9 8 6 5 7 4 3
13 14 15 16 15 13 12 12 12 12 13 12 12 11 12 12 7 10 9 10 11 10 10 9 11 9 6 3 9 3 4 3
14 13 15 16 13 15 15 14 13 13 13 14 11 10 10 9 9 9 10 12 11 11 9 7 11 7 7 7 1 4 3 4
16 14 14 16 13 8 6 6 7 7 12 13 11 9 7 8 8 9 9 11 9 9 9 5 2 1 3 2 4 4 4 8
17 17 15 15 11 9 10 8 8 8 10 13 10 8 10 9 7 8 7 7 6 6 4 5 5 5 4 4 2 3 4 6
19 18 16 14 14 12 11 10 10 10 10 13 11 11 10 9 8 8 7 6 6 5 5 5 6 6 5 5 5 5 6 6
21 20 18 17 15 16 12 11 10 11 11 12 14 9 8 8 8 8 7 7 6 5 6 6 5 5 6 5 6 6 8 8
20 18 17 18 18 15 12 12 13 12 10 11 13 11 9 9 7 6 6 5 7 7 7 6 6 6 7 6 6 7 8 9
20 16 19 18 16 13 11 10 10 10 9 9 13 11 11 9 7 7 7 7 7 7 7 8 8 8 7 7 8 9 10 10
20 19 20 19 12 11 12 11 9 8 8 7 12 11 11 9 7 6 8 6 6 7 7 7 7 7 7 7 7 8 8 8
18 14 16 16 9 9 8 8 7 6 6 6 10 6 9 9 7 8 8 6 6 7 8 7 7 8 9 8 7 7 7 7
14 16 16 12 12 10 5 7 5 4 3 6 6 6 7 9 7 8 7 7 7 7 7 9 8 9 9 9 7 6 6 7
16 16 16 14 10 8 5 6 4 5 5 5 4 5 6 9 9 8 8 6 7 8 9 8 7 10 6 8 7 6 5 4
12 13 16 13 11 7 7 8 6 4 5 5 4 4 4 6 6 5 6 5 6 7 7 7 7 8 8 3 5 5 9 6
11 13 14 12 12 10 13 7 6 3 6 6 4 4 4 8 9 8 6 2 3 4 1 2 4 7 5 2 5 6 6 6
8 11 9 9 8 9 7 9 8 8 8 11 11 10 11 11 9 8 7 4 5 4 1 1 3 5 5 2 0 1 2 3
11 11 11 11 11 12 13 14 12 10 9 8 7 6 7 8 6 6 6 4 3 4 4 4 1 1 2 2 1 2 3 3
10 12 12 11 11 12 12 11 12 12 9 7 6 8 8 12 12 12 9 9 6 4 3 5 4 3 4 3 3 2 3 7
12 13 14 13 14 13 10 13 8 9 13 11 9 7 5 11 5 5 7 7 7 6 5 5 5 3 4 2 2 2 3 4
Wind_Direction
163 173 167 156 155 153 153 155 153 152 151 149 146 143 147 146 141 135 133 136 134 133 131 126 126 133 130 118 129 269 260 87
169 175 175 174 171 154 153 154 150 150 143 140 140 138 138 140 137 137 138 135 130 127 122 116 105 101 101 111 160 229 71 113
172 177 179 178 178 168 155 149 148 142 140 138 148 174 175 162 116 135 132 124 116 110 107 109 109 97 95 140 249 89 99 56
171 182 180 178 180 167 178 172 176 180 176 170 179 170 188 193 128 123 119 111 105 114 122 148 210 162 140 203 101 101 117 78
180 175 184 184 176 170 174 167 167 179 174 179 182 182 167 178 156 160 153 164 157 166 168 191 136 192 89 93 130 184 107 75
184 181 176 190 159 179 175 171 168 172 186 185 170 186 184 184 178 171 170 179 159 169 152 130 127 110 113 119 125 122 114 107
185 183 180 189 180 182 177 183 180 180 186 192 189 191 187 183 174 175 171 171 172 167 152 153 141 138 132 128 115 111 121 89
188 189 182 189 191 188 182 186 185 198 186 193 202 195 186 186 173 171 167 171 165 164 158 158 152 133 129 128 119 117 97 108
192 188 188 196 194 189 193 188 185 201 188 197 199 201 179 183 181 173 161 156 156 149 157 146 151 151 133 134 119 101 107 124
189 193 194 199 195 194 198 193 197 196 192 182 193 193 181 183 175 172 161 165 169 166 170 165 162 158 150 148 141 139 132 136
194 193 204 197 191 198 196 196 198 191 184 188 185 182 180 185 176 163 174 175 178 175 174 179 162 149 133 140 136 132 134 125
198 186 198 195 170 184 192 185 181 168 179 176 176 165 175 181 170 164 182 183 182 183 175 178 167 146 146 134 131 133 138 135
188 186 191 182 183 168 163 182 156 141 153 139 148 147 172 188 169 169 186 190 192 180 175 173 154 148 137 125 114 122 141 137
194 184 175 183 182 177 162 150 146 142 136 131 139 151 177 191 171 180 186 183 181 181 180 169 170 176 171 147 151 147 139 148
193 182 176 185 175 136 113 104 102 133 149 133 165 181 173 193 162 165 171 187 182 180 191 192 178 190 229 269 174 190 152 159
174 176 177 170 151 152 162 166 157 136 136 111 94 41 85 42 48 47 72 38 112 161 196 270 238 200 223 267 314 91 189 170
87 105 100 111 132 137 134 86 87 93 88 87 84 71 51 48 56 58 63 15 52 56 74 153 258 306 252 173 234 325 267 159
84 95 102 104 106 110 114 119 119 114 118 114 109 99 94 64 57 78 83 56 36 83 63 87 222 211 251 269 264 251 209 260
101 104 103 105 103 112 121 125 127 128 126 124 159 150 151 156 167 162 143 143 141 105 94 70 65 72 41 33 5 319 297 255
141 141 144 148 146 143 145 142 145 168 156 150 181 164 143 127 137 94 106 126 130 117 120 107 123 125 115 105 204 237 226 225